Location: Newark
(55.7678°N, 23.6664°E)
Time: 20:47:44
(UTC+00:00)

N. Korean satellite - Pass Details

Date: 03 October 2020
Orbit: 452 x 505 km, 97.2° (Epoch: 28 October)

Event Time Altitude Azimuth Distance (km) Brightness Sun altitude
Rises 03:19:51 0° 22° (NNE) 2,585 10.7 -11.0°
Reaches altitude 10° 03:22:15 10° 37° (NE) 1,687 10.0 -10.7°
Maximum altitude 03:25:15 24° 93° (E) 1,039 9.3 -10.3°
Drops below altitude 10° 03:28:12 10° 149° (SSE) 1,648 9.6 -9.9°
Sets 03:30:30 0° 164° (SSE) 2,510 10.3 -9.6°
